This demonstration page uses our WeatherBlox Daily Observations layout. Learn more.

Left ArrowRight Arrow

Hourly Observations for November 25, 2019

Temp ( °F °C ) Dew Point ( °F °C ) Humidity (%) Winds ( mph kmh ) Pressure ( in mb ) Visibility ( mi km ) Precip ( " mm )
12:53 am 00:53 Clear with Light Rain 37 2.8 35 1.7 93 93 Calm 29.90 1013 10 16 0.00 0.00
1:53 am 01:53 Clear 36 2.2 34 1.1 93 93 Calm 29.90 1013 10 16 0.00 0.00
2:53 am 02:53 Clear with Light Rain 35 1.7 33 0.6 93 93 Calm 29.90 1012 4 6 0.00 0.00
3:33 am 03:33 Clear with Mist and Fog 34 1.1 32 0 92 92 Calm 29.97 1015 2 3 0.00 0.00
3:43 am 03:43 Clear with Mist and Fog 35 1.7 33 0.6 93 93 Calm 29.97 1015 4 6 0.00 0.00
3:53 am 03:53 Clear 34 1.1 33 0.6 97 97 Calm 29.90 1012 10 16 0.00 0.00
4:40 am 04:40 Mostly Cloudy with Light Rain 33 0.6 31 -0.6 92 92 Calm 29.94 1014 1 2 0.00 0.00
4:46 am 04:46 Mostly Cloudy with Light Rain 33 0.6 31 -0.6 92 92 Calm 29.94 1014 1 1 0.00 0.00
4:53 am 04:53 Mostly Cloudy with Light Rain 33 0.6 32 0 96 96 Calm 29.90 1012 1 1 0.00 0.00
5:13 am 05:13 Mostly Cloudy with Fog 32 0 30 -1.1 92 92 Calm 29.94 1014 1 1 0.00 0.00
5:21 am 05:21 Mostly Cloudy with Mist and Fog 32 0 30 -1.1 92 92 Calm 29.94 1014 1 2 0.00 0.00
5:28 am 05:28 Clear with Mist and Fog 32 0 30 -1.1 92 92 Calm 29.94 1014 2 3 0.00 0.00
5:37 am 05:37 Clear with Light Wintry Mix 33 0.6 31 -0.6 92 92 Calm 29.94 1014 10 16 0.00 0.00
5:53 am 05:53 Clear 33 0.6 31 -0.6 92 92 Calm 29.89 1012 10 16 0.00 0.00
6:53 am 06:53 Clear 33 0.6 31 -0.6 92 92 Calm 29.91 1013 10 16 0.00 0.00
7:53 am 07:53 Sunny with Light Snow 33 0.6 32 0 96 96 Calm 29.92 1013 10 16 0.00 0.00
8:53 am 08:53 Sunny 40 4.4 36 2.2 86 86 Calm 29.93 1014 10 16 0.00 0.00
9:53 am 09:53 Sunny 46 7.8 38 3.3 73 73 WNW 5 7 29.96 1014 10 16 0.00 0.00
10:53 am 10:53 Sunny 52 11.1 38 3.3 59 59 W 5 7 29.94 1014 10 16 0.00 0.00
11:53 am 11:53 Sunny 56 13.3 38 3.3 51 51 SW 7 11 29.92 1013 10 16 0.00 0.00
12:53 pm 12:53 Sunny 58 14.4 38 3.3 48 48 VRB 3 6 29.89 1012 10 16 0.00 0.00
1:53 pm 13:53 Sunny 60 15.6 36 2.2 41 41 W 3 6 29.88 1012 10 16 0.00 0.00
2:53 pm 14:53 Sunny 62 16.7 35 1.7 37 37 SW 5 7 29.87 1011 10 16 0.00 0.00
3:53 pm 15:53 Sunny 63 17.2 35 1.7 35 35 Calm 29.86 1011 10 16 0.00 0.00
4:53 pm 16:53 Sunny 62 16.7 36 2.2 38 38 Calm 29.87 1012 10 16 0.00 0.00
5:53 pm 17:53 Clear 57 13.9 38 3.3 49 49 SSW 3 6 29.89 1012 10 16 0.00 0.00
6:53 pm 18:53 Clear 50 10 41 5 71 71 Calm 29.91 1013 10 16 0.00 0.00
7:53 pm 19:53 Clear 46 7.8 40 4.4 79 79 Calm 29.94 1014 10 16 0.00 0.00
8:53 pm 20:53 Clear 45 7.2 41 5 86 86 Calm 29.95 1014 10 16 0.00 0.00
9:53 pm 21:53 Clear 42 5.6 39 3.9 89 89 Calm 29.95 1014 10 16 0.00 0.00
10:53 pm 22:53 Clear 42 5.6 38 3.3 85 85 Calm 29.96 1015 10 16 0.00 0.00
11:53 pm 23:53 Clear 40 4.4 37 2.8 89 89 Calm 29.98 1015 10 16 0.00 0.00

Powered by AerisWeather